Boscobel, WI

10:02 AM CST on January 19, 2018 (GMT -0600)
Boscobel

Weather History for KOVS - March, 2013

Change the Weather History Date:

Friday, March 22, 2013

  Actual Average (KPDC) Record (KPDC)
Temperature  
Mean Temperature 22 °F -  
Max Temperature 37 °F 48 °F 75 °F (2012)
Min Temperature 7 °F 26 °F 8 °F (2013)
Degree Days  
Heating Degree Days 43    
Moisture  
Dew Point 12 °F    
Average Humidity 66    
Maximum Humidity 87    
Minimum Humidity 36    
Precipitation  
Precipitation 0.00 in - - ()
Sea Level Pressure  
Sea Level Pressure 30.10 in    
Wind  
Wind Speed 0 mph (South)    
Max Wind Speed 5 mph    
Max Gust Speed -    
Visibility 10 miles    
Events      
Averages and records for this station are not official NWS values.
T = Trace of Precipitation, MM = Missing Value Source: NWS Daily Summary

Daily Weather History Graph

Daily Weather History Graph

Search for Another Location

Airport or City:

Trip Planner

Search our weather history database for the weather conditions in past years. The results will help you decide how hot, cold, wet, or windy it might be!

Date:

Astronomy

Mar. 22, 2013 Rise Set
Actual Time 7:01 AM CDT 7:17 PM CDT
Civil Twilight 6:33 AM CDT 7:46 PM CDT
Nautical Twilight 6:00 AM CDT 8:19 PM CDT
Astronomical Twilight 5:25 AM CDT 8:53 PM CDT
Moon 2:38 PM CDT (3/22) 4:09 AM CDT (3/22)
Length of Visible Light 13h 12m
Length of Day
12h 15m
Waxing Gibbous, 77% of the Moon is Illuminated
Mar 22
Waxing Gibbous
Mar 27
Full
Apr 2
Last Quarter
Apr 10
New
Apr 18
First Quarter

Hourly Weather History & Observations

Time (CDT) Temp. Windchill Dew Point Humidity Pressure Visibility Wind Dir Wind Speed Gust Speed Precip Events Conditions
12:53 AM 12.9 °F - 8.1 °F 81% 30.11 in 7.0 mi Calm Calm - N/A   Clear
1:53 AM 12.0 °F - 8.1 °F 84% 30.12 in 10.0 mi Calm Calm - N/A   Clear
2:53 AM 10.0 °F - 6.1 °F 84% 30.13 in 7.0 mi Calm Calm - N/A   Clear
3:53 AM 10.0 °F - 6.1 °F 84% 30.12 in 10.0 mi Calm Calm - N/A   Clear
4:53 AM 8.1 °F - 5.0 °F 87% 30.11 in 7.0 mi Calm Calm - N/A   Clear
5:53 AM 7.0 °F - 3.9 °F 87% 30.12 in 10.0 mi Calm Calm - N/A   Clear
6:53 AM 7.0 °F - 3.0 °F 84% 30.12 in 10.0 mi Calm Calm - N/A   Unknown
7:53 AM 10.0 °F - 7.0 °F 87% 30.12 in 10.0 mi Calm Calm - N/A   Clear
8:53 AM 15.1 °F 9.4 °F 10.9 °F 84% 30.13 in 10.0 mi SSW 3.5 mph - N/A   Clear
9:53 AM 21.0 °F 16.2 °F 12.0 °F 68% 30.12 in 10.0 mi South 3.5 mph - N/A   Clear
10:53 AM 26.1 °F - 12.0 °F 55% 30.11 in 10.0 mi Calm Calm - N/A   Clear
11:53 AM 30.9 °F - 14.0 °F 50% 30.10 in 10.0 mi Calm Calm - N/A   Clear
12:53 PM 33.1 °F - 12.9 °F 43% 30.09 in 10.0 mi Calm Calm - N/A   Clear
1:53 PM 34.0 °F - 14.0 °F 44% 30.07 in 10.0 mi Calm Calm - N/A   Clear
2:53 PM 37.0 °F - 12.0 °F 36% 30.05 in 10.0 mi Calm Calm - N/A   Clear
3:53 PM 37.0 °F - 15.1 °F 41% 30.05 in 10.0 mi Calm Calm - N/A   Clear
4:53 PM 37.0 °F 33.3 °F 15.1 °F 41% 30.06 in 10.0 mi South 4.6 mph - N/A   Clear
5:53 PM 37.9 °F - 16.0 °F 41% 30.06 in 10.0 mi Calm Calm - N/A   Clear
6:53 PM 35.1 °F - 15.1 °F 44% 30.06 in 10.0 mi Calm Calm - N/A   Clear
7:53 PM 28.9 °F 25.2 °F 18.0 °F 64% 30.08 in 9.0 mi ESE 3.5 mph - N/A   Clear
8:53 PM 28.0 °F - 18.0 °F 66% 30.09 in 10.0 mi Calm Calm - N/A   Clear
9:53 PM 26.1 °F - 19.0 °F 75% 30.10 in 10.0 mi Calm Calm - N/A   Clear
10:53 PM 26.1 °F - 18.0 °F 71% 30.11 in 10.0 mi Calm Calm - N/A   Clear
11:53 PM 26.1 °F - 18.0 °F 71% 30.12 in 10.0 mi Calm Calm - N/A   Clear